Other Public Products
Issued by NWS Grand Forks, ND

Home | Current Version | Previous Version | Graphics & Text | Print | Product List | Glossary On
Versions: 1 2 3 4 5 6 7 8 9 10 11 12 13 14 15 16 17 18 19 20 21 22 23 24 25 26 27 28 29 30 31 32 33 34 35 36 37 38 39 40 41 42 43 44 45 46 47 48 49 50
000
FPUS83 KFGF 010710
OPUFGF
PRAIRIE TO PINES WEATHER ROUNDUP
NATIONAL WEATHER SERVICE EASTERN NORTH DAKOTA/GRAND FORKS ND
200 AM CDT SAT AUG 01 2015

 **SATELLITE DATA USED TO AUGMENT SKY COVER AT AUTOMATED STATIONS**
 *****  WEATHER ACROSS EASTERN NORTH DAKOTA  *****

CITY           SKY/WX    TMP DP  RH WIND       PRES   REMARKS
GRAND FORKS    CLEAR     58  52  80 W7        29.96F
GRAND FORKS AF CLEAR     55  51  86 W5        29.97F
GRAND CITY NWS   N/A     59 N/A N/A NW2         N/A
BUXTON         NOT AVBL
DEVILS LAKE    CLEAR     57  50  77 CALM      30.00S
FARGO          CLEAR     59  55  87 CALM      29.99F
WAHPETON ARPT  SUNNY     59  54  82 S5        30.00F
$$

 *****  WEATHER ACROSS CENTRAL AND WESTERN NORTH DAKOTA  *****

CITY           SKY/WX    TMP DP  RH WIND       PRES   REMARKS
JAMESTOWN      CLEAR     60  56  86 CALM      30.02S
BISMARCK       MOCLDY    64  58  80 NE9       30.04S
MINOT          CLEAR     63  51  65 W3        30.02R
MINOT AFB      CLEAR     54  54  99 W6        30.02R
GARRISON         N/A     58  55  90 N3        30.03S
WILLISTON      CLEAR     65  53  65 NE5       30.02F
DICKINSON      CLEAR     59  51  75 E9        30.02F
HETTINGER      CLEAR     64  46  52 SE6       30.05F
$$

 *****  OTHER OBSERVATIONS NORTHEAST NORTH DAKOTA  *****

CITY           SKY/WX    TMP DP  RH WIND       PRES   REMARKS
WALHALLA       FAIR      61  52  72 MISG      29.96S
LANGDON        FAIR      50  48  93 SW5       30.00F
CAVALIER       FAIR      57  54  88 W6        29.95F
GRAFTON        FAIR      59  55  88 W6        29.97S
CANDO          NOT AVBL
FORT TOTTEN      N/A     59  55  85 CALM      29.95S
ROLLA          PTSUNNY   54  50  87 W5        30.03S
RUGBY          NOT AVBL
 ***** THE ABOVE OBSERVATIONS ARE NON NWS ARE NOT QUALITY
        CONTROLLED AND MAY MIS-REPORT RAIN FOR SNOW...
$$

 *****  OTHER OBSERVATIONS SOUTHEAST NORTH DAKOTA *****

CITY           SKY/WX    TMP DP  RH WIND       PRES   REMARKS
COOPERSTOWN    NOT AVBL
VALLEY CITY    FAIR      57  57 100 CALM      30.02S
OAKES            N/A     57  57 100 CALM      30.02S
GWINNER          N/A     63  59  88 CALM      30.02S
SHEYENNE NWR     N/A     58  57  95 CALM      29.95S
BUFFALO        NOT AVBL
WYNDMERE         N/A     57  55  94 CALM        N/A
 ***** THE ABOVE OBSERVATIONS ARE NON NWS ARE NOT QUALITY
       CONTROLLED AND MAY MIS-REPORT RAIN FOR SNOW...
$$

  *****  WEATHER ACROSS NORTHERN MINNESOTA  *****

CITY           SKY/WX    TMP DP  RH WIND       PRES   REMARKS
FLAG ISLAND    CLEAR     63  54  72 W10       29.91S
WARROAD        CLEAR     59  55  88 SW7       29.94S
ROSEAU         CLEAR     54  48  82 CALM      29.95S
HALLOCK        CLEAR     55  54  94 CALM      29.95S
THF RVR FALLS  CLEAR     55  52  88 CALM      29.97F
HALSTAD        NOT AVBL
FOSSTON        CLEAR     52  48  87 S7        30.00S
BAUDETTE       CLEAR     56  49  77 W6        29.93S
WASKISH        CLEAR     66  57  72 W7        29.95S
CROOKSTON      CLEAR     55  52  88 S3        29.98S
$$
  *****  WEATHER ACROSS CENTRAL AND WEST MINNESOTA  *****

CITY           SKY/WX    TMP DP  RH WIND       PRES   REMARKS
BEMIDJI        CLEAR     56  51  82 SW3       29.98F
PARK RAPIDS    CLEAR     58  51  78 CALM      30.00F
WADENA         CLEAR     57  54  88 CALM      30.00F
DETROIT LAKES  CLEAR     63  55  77 CALM      30.02S
MOORHEAD       CLEAR     59  57  94 CALM      30.00F
FERGUS FALLS   CLEAR     63  57  82 CALM      30.00F
ELBOW LAKE     FAIR      65  64  95 CALM      30.01S
MORRIS MN      CLEAR     63  61  94 NE5       30.00S
STAPLES        PTCLDY    57  54  88 CALM      30.00F
WHEATON        CLEAR     63  57  82 NE3       30.02S
$$
  *****  WEATHER ELSEWHERE ACROSS MINNESOTA  *****

CITY           SKY/WX    TMP DP  RH WIND       PRES   REMARKS
DULUTH         CLEAR     61  49  64 W9        29.94F
INTRNTL FALLS  CLEAR     55  51  86 W6        29.92S
ELY            CLEAR     54  52  94 CALM      29.92F
CLOQUET        CLEAR     57  46  67 W5        29.96F
BRAINERD       CLEAR     54  53  97 S3        30.00F
HIBBING        CLEAR     59  47  64 W5        29.95S
ALEXANDRIA     PTCLDY    64  61  90 CALM      30.03S
SAINT CLOUD    PTCLDY    61  59  93 CALM      30.00S
MINNEAPOLIS    MOCLDY    70  58  65 W5        30.00S
$$

  *****  WEATHER ACROSS SOUTH DAKOTA  *****

CITY           SKY/WX    TMP DP  RH WIND       PRES   REMARKS
SIOUX FALLS    CLEAR     71  63  75 SW6       30.06S
BROOKINGS      CLEAR     64  57  77 SW5       30.07S
WATERTOWN      CLEAR     64  57  78 W5        30.04S
HURON          CLEAR     70  62  76 SW12      30.02F
SISSETON         N/A     62  60  93 NW3       30.00R
ABERDEEN       CLEAR     57  54  89 SW6       30.02S
MITCHELL       CLEAR     70  66  87 S9        30.05F
PIERRE         CLEAR     72  60  66 S14       30.02F
MOBRIDGE       PTCLDY    68  55  63 E8        30.00F
RAPID CITY     CLEAR     67  54  63 S6        30.11F
$$

  *****  SOME WEATHER IN NEARBY STATES *****

CITY           SKY/WX    TMP DP  RH WIND       PRES   REMARKS
GLASGOW MT     CLEAR     66  49  54 E13       29.98F
GREAT FALLS MT CLEAR     68  35  29 S13       30.05S
CHEYENNE WY    CLEAR     63  50  62 W6        30.28S
SCOTTSBLUFF NE CLEAR     65  56  72 E8        30.14F
OMAHA NE       PTCLDY    73  68  84 S5        30.07F
DES MOINES IA  PTCLDY    72  64  76 SW3       30.06F
DAVENPORT IA   CLEAR     61  58  90 W5        30.05S
CHICAGO IL     CLEAR     68  52  56 W9        29.99S
EAU CLAIRE WI  CLEAR     60  54  80 S3        29.98S
LA CROSSE WI   CLEAR     65  58  78 S5        30.00S
$$

  *****  SOME NATIONAL WEATHER *****

CITY           SKY/WX    TMP DP  RH WIND       PRES   REMARKS
LA GUARDIA NY  PTCLDY    80  58  46 SW9       29.79F
RALEIGH NC     PTCLDY    69  65  86 CALM      29.94S
ATLANTA GA     PTCLDY    74  64  71 CALM      29.95F
NEW ORLEANS LA PTCLDY    85  64  49 NE10      29.91F
OKLAHOMA CITY  PTCLDY    74  72  93 NE3       30.09F
ALBUQUERQUE NM CLOUDY    70  59  68 W8        30.31S
SALT LAKE CITY PTCLDY    69  40  34 CALM      30.13R
LOS ANGELES CA CLOUDY    67  65  93 W8        29.97S FOG
BOISE ID       CLEAR     78  36  21 SE8       30.00S
SEATTLE WA     CLEAR     74  41  30 N5        30.00S
$$

*** WEATHER ACROSS MANITOBA...SASKATCHEWAN AND ONTARIO ***
                ***ONTARIO***

CITY           SKY/WX    TMP DP  RH WIND       PRES   REMARKS
GERALDTON      PTCLDY    55  54  94 W6        29.74S
THUNDER BAY    MOCLDY    57  55  94 W7        29.82F
SIOUX LOOKOUT  PTCLDY    57  55  94 W5        29.85S
TORONTO        PTCLDY    64  57  77 W8        29.79S
BIG TROUT LK   CLEAR     59  52  77 W8        29.61F
PICKLE LAKE    NOT AVBL
DRYDEN         CLEAR     55  55 100 SW8       29.87S
KENORA         CLEAR     61  55  82 W7        29.90F
$$
                *** MANITOBA***

CITY           SKY/WX    TMP DP  RH WIND       PRES   REMARKS
BRANDON        CLEAR     50  48  93 W9        29.99S
DAUPHIN        CLEAR     57  52  82 W9        29.94S
ISLAND LAKE    CLEAR     61  55  82 W15       29.72F
PILOT MOUND      N/A     52  48  87 W3          N/A
THE PAS        MOCLDY    59  52  77 CALM      29.85F
THOMPSON       PTCLDY    54  52  94 NW7       29.74S
WINNIPEG       NOT AVBL
LYNN LAKE      CLEAR     54  50  87 NW7       29.82F
CHURCHILL      CLOUDY    54  50  87 N16G23    29.53F
GILLAM         PTCLDY    57  50  77 NW16G23   29.63F
$$
                ***SASKATCHEWAN***

CITY           SKY/WX    TMP DP  RH WIND       PRES   REMARKS
ESTEVAN        CLEAR     55  50  82 SE3       30.04S
KINDERSLEY     PTCLDY    63  52  67 S9        29.94F
LLOYDMINSTER   MOCLDY    59  52  77 W6        29.93F
PRINCE ALBERT  PTCLDY    55  52  88 CALM      29.89F
REGINA         CLEAR     54  52  94 S6        30.02F



USA.gov is the U.S. government's official web portal to all federal, state and local government web resources and services.